STARLINK-3779 (52281 NORAD) Tracking and Keplerian Element Data

This shows tracking and keplerian element data for the satellite.

Feedback or suggestion? Click here.




ElementValue
Catalog52281
NameSTARLINK-3779
Epoch Orbit130
Epoch Day167.08334491
Epoch Year2022
RAAN106.8293
Inclination53.2173
Eccentricity0.0001848
Argument of Perigee41.723
Mean Anonmoly111.5899
Mean Motion15.27255246
Decay Rate-0.00725271
L11 52281U 22041W 22167.08334491 -.00725271 00000+0 -28728-1 0 9990
L22 52281 53.2173 106.8293 0001848 41.7230 111.5899 15.27255246 1305

Live tracking and technical data element details for STARLINK-3779 (NORAD 52281). STARLINK-3779 can be tracked NOW for your location showing map with azimuth and elevation plus other details from your city location.

Track the satellite on the map from your city or location and see movement details for azimuth, elevation, latitude, longitude, range, height, and movement on the map or in text.







IsCatalogInMostPopularTable: catalog: 52281, numindb: 1
Update: records affected: 1



GetName: 52281 STARLINK-3779

Hit Count: updated at: Sat, 25 Jun 2022 04:50:06 GMT